Simultaneous Nadir Overpasses (SNOs) Predictions

Prediction of SNOs between NOAA-19 and TERRA Satellite Orbit:

Table of predicted SNOs for the next 14.0 days since TLE Epoch: 9/15/2018
Index Date (NOAA-19) Time (NOAA-19) Lat,Lon (NOAA-19) SZA (NOAA-19 ) Date (TERRA) Time (TERRA) Lat,Lon (TERRA) SZA (TERRA ) Distance(km) Time Diff (sec)
1 09/16/2018 02:04:50 -77.48, -13.43 104.59 09/16/2018 02:05:44 -77.50, -13.52 104.57 2.94 54
2 09/16/2018 02:55:50 77.47, 153.87 75.42 09/16/2018 02:55:11 77.44, 153.90 75.38 3.25 39
3 09/18/2018 07:38:23 77.53, 83.02 76.32 09/18/2018 07:39:25 77.53, 83.20 76.35 4.26 62
4 09/18/2018 08:29:23 -77.47,-109.44 103.71 09/18/2018 08:28:54 -77.45,-109.49 103.74 2.36 29
5 09/20/2018 13:11:56 -77.51, 179.82 102.82 09/20/2018 13:13:08 -77.53, 179.77 102.78 2.93 72
6 09/20/2018 14:02:53 77.47, -12.73 77.18 09/20/2018 14:02:34 77.47, -12.84 77.17 2.72 19
7 09/22/2018 18:45:36 77.92, -85.69 78.32 09/22/2018 18:46:41 77.85, -82.29 78.51 79.80 65
8 09/22/2018 19:36:28 -77.50, 83.78 101.92 09/22/2018 19:36:16 -77.51, 83.88 101.91 2.46 12
9 09/25/2018 01:09:58 77.51,-179.55 78.98 09/25/2018 01:09:57 77.50,-179.59 78.96 1.97 1
10 09/27/2018 06:43:33 -77.51, -82.85 100.14 09/27/2018 06:43:39 -77.51, -82.95 100.15 2.55 6




NCC Satellite Simultaneous Nadir Overpasses (SNOs) Prediction Service
